Wind_Speed
21 18 19 18 19 20 19 18 17 16 15 14 14 14 14 13 13 13 12 10 10 11 12 12 13 15 14 14 15 16 15 16 17 17 18 18 19 20 20 21 22 22 23
21 20 19 19 19 20 22 21 19 18 17 16 15 15 14 14 15 15 13 11 11 12 13 14 15 15 16 16 16 16 16 17 17 17 17 19 19 21 22 22 22 24 24
22 21 19 20 20 20 21 21 22 21 19 18 17 15 15 15 15 14 14 13 13 15 15 15 17 17 17 17 17 18 18 17 17 17 17 18 18 19 21 22 23 25 25
24 23 21 20 21 21 21 21 21 20 19 18 18 17 15 15 14 15 15 15 15 16 17 18 18 19 19 19 19 19 19 18 18 19 20 21 22 23 24 25 25 26 26
23 24 21 19 20 22 22 21 20 20 20 19 18 17 16 15 14 15 16 17 17 17 16 15 16 17 16 16 16 17 18 19 20 21 22 22 23 24 23 24 24 25 26
21 22 25 24 23 22 22 23 22 21 20 19 19 17 16 16 16 16 17 16 16 17 18 18 17 18 18 17 18 19 20 21 22 23 24 24 25 26 26 26 28 28 28
26 27 27 28 26 27 24 24 24 22 20 20 20 19 17 16 17 17 17 16 16 16 17 17 17 17 17 17 17 17 18 20 20 21 22 23 23 24 23 24 25 25 28
27 27 28 27 26 27 25 23 24 24 21 20 20 20 19 18 17 17 18 17 16 16 16 15 15 13 14 14 17 19 20 22 23 24 24 23 24 24 24 25 27 27 29
29 29 28 26 26 28 26 22 23 23 22 21 21 21 21 20 19 19 19 19 17 16 15 15 16 17 19 21 24 27 29 30 28 27 27 26 26 25 25 25 26 27 28
28 29 27 27 27 28 29 23 22 23 21 21 21 22 24 22 22 21 20 19 19 19 19 20 20 21 21 24 25 27 30 30 29 29 29 30 28 27 29 30 31 32 30
30 28 29 28 27 27 28 28 24 24 22 22 22 23 24 25 24 24 23 22 23 23 23 23 23 22 22 24 25 25 23 19 22 26 26 27 27 28 27 28 31 31 30
33 31 30 30 28 29 28 29 27 26 26 22 21 22 23 25 26 27 26 26 26 27 28 27 26 25 24 26 25 24 19 16 16 17 19 20 22 24 26 30 31 31 32
36 33 32 32 32 31 31 29 30 31 30 27 25 23 24 26 27 28 29 30 30 30 31 31 29 27 27 28 27 27 25 22 20 21 23 24 26 27 30 33 34 35 36
38 36 35 35 34 34 33 32 34 33 33 30 29 28 28 28 29 30 32 33 34 35 32 31 31 30 29 30 29 29 28 28 26 26 27 27 30 32 33 35 36 36 36
40 39 38 37 35 36 35 35 34 34 30 32 33 32 31 31 30 29 32 34 35 36 35 34 35 33 31 32 30 31 30 31 31 30 30 31 35 34 36 37 37 35 32
39 41 40 38 37 37 36 36 36 38 38 37 36 36 35 34 31 29 30 32 35 35 36 36 35 33 32 34 33 32 33 33 34 34 34 34 36 36 38 38 36 33 32
36 41 41 38 38 38 37 35 37 36 38 37 37 37 36 34 33 32 31 33 36 36 36 36 36 35 34 34 35 35 36 36 34 35 36 37 38 38 39 39 37 36 36
36 36 41 42 39 38 39 38 37 36 36 36 37 36 36 35 34 34 34 36 37 37 36 37 37 36 36 36 36 37 39 34 34 35 38 40 40 40 41 42 40 39 40
36 36 37 41 43 41 38 40 38 37 37 34 34 37 37 35 35 37 37 37 38 38 38 38 37 37 36 36 35 34 34 34 36 38 40 40 42 43 43 43 43 42 43
38 38 41 38 42 44 44 43 40 39 37 36 36 37 37 36 36 39 39 37 39 40 39 39 38 38 37 36 35 35 36 37 39 40 42 43 45 46 46 46 45 46 46
40 39 40 42 40 42 45 47 45 44 42 39 39 39 37 36 37 40 39 38 40 41 40 39 40 39 39 38 37 37 40 42 43 44 45 47 48 49 49 49 49 49 51
47 43 42 44 45 44 42 45 50 49 46 44 42 41 38 36 37 39 39 39 40 41 42 42 42 41 41 41 41 41 43 46 48 49 50 51 53 51 52 52 52 54 57
54 48 46 44 48 45 42 45 45 47 49 45 41 42 41 39 38 38 39 40 41 41 43 44 44 44 44 46 46 46 48 49 49 51 52 53 54 54 55 54 56 60 62
50 54 52 47 50 50 43 43 46 46 45 42 42 41 40 40 38 36 38 40 41 41 44 45 47 47 48 48 47 49 51 52 52 51 52 53 53 55 56 58 61 64 67
49 52 53 51 47 51 42 42 48 45 41 39 41 41 39 39 40 38 38 41 43 43 43 45 48 48 49 50 50 51 52 53 55 55 53 54 56 57 58 61 62 64 66
52 51 54 53 48 48 43 45 47 44 42 41 41 40 40 39 38 40 42 42 44 45 46 47 48 49 49 51 52 52 53 54 55 56 57 56 56 58 62 66 66 66 67
Wind_Direction
255 252 253 258 252 248 249 250 255 257 257 264 272 267 259 254 251 255 258 254 254 258 257 262 266 266 268 270 276 278 274 274 274 276 274 273 273 274 276 278 282 283 283
248 250 245 250 252 248 249 251 255 260 261 262 269 273 264 258 255 255 252 255 262 265 261 263 267 270 270 271 274 275 278 280 279 276 274 272 273 276 278 277 280 280 283
253 254 248 246 249 250 250 248 250 255 258 264 270 267 263 253 252 252 254 257 263 266 264 265 268 268 271 274 276 277 278 277 276 276 276 274 273 274 276 276 278 279 280
260 259 256 255 253 254 254 253 252 251 252 258 263 263 256 254 250 250 252 257 265 266 264 264 266 267 269 272 274 275 274 274 277 278 277 278 278 277 277 278 280 280 281
256 263 264 258 254 253 256 255 252 252 256 259 262 261 258 254 254 253 254 258 260 262 265 266 270 271 272 274 277 277 277 279 277 277 278 278 279 277 278 279 280 281 281
254 258 260 270 266 261 257 259 256 252 252 255 255 253 255 257 256 256 256 259 263 263 262 261 262 267 273 278 279 281 281 280 281 280 279 278 278 277 278 279 281 281 282
258 262 266 273 271 269 263 262 260 255 252 252 252 251 248 249 255 257 258 259 261 264 266 266 268 269 272 276 281 281 282 282 282 281 279 279 280 281 283 284 284 286 285
254 259 263 267 269 268 266 267 265 263 256 250 251 250 250 250 252 253 255 256 259 262 261 261 262 265 274 282 286 286 282 281 280 277 275 277 276 279 282 284 285 285 283
247 253 257 264 268 266 265 262 263 262 261 261 258 254 252 252 255 257 256 256 255 251 245 247 259 272 282 289 291 290 285 279 276 276 276 277 280 283 286 288 288 288 287
249 252 256 261 265 266 267 261 260 262 261 261 260 259 256 254 255 258 257 255 246 243 247 254 263 273 282 290 293 295 288 279 274 272 273 275 278 283 286 289 287 287 295
256 256 257 261 266 264 270 266 261 261 259 259 258 256 256 256 255 258 259 256 253 250 250 256 264 272 283 293 294 300 293 286 277 273 272 272 275 280 283 287 287 290 287
258 259 259 260 261 265 264 265 265 264 267 268 270 267 262 257 255 254 257 259 256 257 259 261 265 271 281 290 292 295 280 283 285 288 284 282 280 283 288 289 291 292 289
256 260 262 262 260 261 262 257 262 266 265 264 269 274 275 270 261 257 256 258 261 260 262 263 266 269 278 286 289 295 274 276 281 285 286 288 288 291 294 293 292 289 286
256 258 260 262 262 260 260 255 257 260 267 268 267 269 271 272 271 266 264 262 262 263 264 266 266 269 276 283 287 289 278 274 279 282 284 290 292 296 297 298 296 295 288
254 255 255 257 261 262 260 259 258 261 260 267 269 272 272 274 276 277 271 268 269 268 268 265 267 268 273 280 283 286 286 276 277 281 287 291 295 296 298 298 296 295 294
251 252 253 255 258 260 260 259 255 259 266 269 270 272 276 275 279 279 275 271 271 271 269 269 266 266 271 277 281 284 286 283 278 282 286 290 294 295 298 298 296 291 289
251 251 252 254 257 260 258 258 260 257 260 263 266 270 275 277 276 277 275 272 270 271 271 271 268 267 270 274 280 282 286 284 279 281 287 292 292 294 299 299 294 289 287
247 250 251 252 255 257 260 258 258 261 263 265 268 269 273 274 273 274 274 272 271 270 270 271 271 270 271 276 282 285 286 282 283 286 291 294 292 294 299 299 294 288 285
248 248 252 250 251 252 255 259 260 261 264 265 269 270 274 276 272 270 272 271 270 269 270 273 274 272 273 278 283 288 284 286 288 291 295 297 295 294 296 297 293 287 285
248 249 252 251 252 253 255 257 261 263 263 264 267 270 271 274 273 268 268 272 270 268 270 274 274 273 276 280 282 285 288 290 292 293 294 298 298 295 296 297 290 286 284
246 252 255 258 255 256 256 258 260 262 264 263 267 270 273 270 273 267 268 273 270 268 268 273 274 277 279 282 285 287 289 291 293 294 295 297 298 295 296 294 289 286 286
247 246 248 253 255 255 257 259 260 263 264 265 265 268 275 271 271 266 266 271 272 268 268 271 274 278 280 284 287 290 289 289 292 293 294 297 297 295 295 293 289 288 288
248 247 245 252 254 253 254 256 261 263 263 264 265 266 270 269 269 267 267 270 273 271 269 271 275 278 280 282 284 288 289 291 292 293 296 297 296 296 295 292 291 292 292
250 247 245 248 251 252 251 253 260 262 264 265 267 269 271 268 267 268 268 270 272 273 272 273 275 279 282 285 284 287 289 290 290 292 294 294 295 293 292 293 294 296 296
251 248 246 242 245 249 252 250 255 259 263 263 267 268 269 271 268 269 270 271 272 273 274 275 277 279 282 284 287 288 289 290 292 294 294 294 293 291 290 291 292 292 291
254 250 245 242 242 246 247 248 252 257 261 261 263 266 269 271 272 271 271 273 274 274 275 277 278 281 283 286 288 290 292 293 294 294 294 292 291 291 294 295 294 292 291
Height
5844 5845 5847 5847 5848 5849 5850 5850 5851 5851 5851 5851 5850 5849 5849 5849 5848 5848 5848 5848 5847 5847 5847 5848 5848 5848 5849 5849 5849 5849 5849 5849 5849 5850 5851 5851 5851 5851 5850 5850 5849 5849 5849
5840 5841 5843 5844 5845 5845 5846 5847 5848 5848 5848 5848 5848 5848 5847 5846 5846 5846 5845 5846 5845 5845 5845 5845 5845 5846 5847 5847 5847 5847 5847 5847 5847 5847 5847 5847 5847 5847 5847 5846 5846 5845 5845
5837 5838 5839 5840 5841 5842 5843 5843 5844 5844 5845 5845 5845 5844 5845 5844 5844 5844 5843 5843 5843 5844 5843 5843 5843 5843 5844 5844 5845 5845 5844 5844 5844 5844 5844 5844 5843 5844 5844 5843 5842 5842 5841
5834 5834 5836 5837 5837 5838 5838 5840 5840 5841 5841 5841 5841 5842 5841 5842 5842 5841 5841 5841 5841 5841 5841 5840 5840 5840 5841 5841 5842 5843 5843 5842 5841 5841 5841 5840 5840 5839 5839 5839 5838 5837 5837
5831 5831 5832 5833 5833 5833 5834 5835 5837 5837 5837 5837 5837 5838 5839 5839 5839 5839 5839 5839 5839 5838 5838 5838 5839 5839 5838 5838 5838 5839 5839 5839 5837 5837 5837 5836 5836 5835 5835 5835 5834 5833 5833
5829 5828 5829 5829 5830 5830 5831 5831 5832 5833 5833 5834 5834 5834 5834 5835 5835 5836 5836 5836 5837 5836 5836 5836 5836 5836 5836 5836 5835 5835 5835 5834 5834 5833 5833 5832 5831 5831 5830 5829 5829 5828 5828
5826 5826 5826 5826 5827 5827 5828 5828 5829 5829 5829 5830 5830 5830 5831 5831 5832 5832 5833 5833 5833 5833 5834 5833 5834 5833 5833 5833 5833 5831 5831 5830 5829 5829 5827 5827 5826 5825 5825 5824 5824 5822 5823
5821 5822 5822 5823 5823 5823 5824 5825 5826 5826 5826 5826 5826 5827 5827 5828 5829 5829 5830 5830 5830 5830 5831 5831 5831 5830 5830 5829 5829 5829 5827 5826 5826 5824 5823 5822 5821 5820 5821 5820 5820 5818 5817
5817 5817 5818 5818 5818 5818 5819 5820 5822 5823 5823 5824 5824 5824 5824 5824 5825 5826 5826 5827 5827 5827 5827 5827 5828 5827 5827 5826 5825 5824 5823 5821 5821 5819 5819 5818 5817 5816 5816 5815 5814 5812 5810
5812 5813 5814 5814 5814 5815 5816 5816 5817 5819 5820 5820 5820 5821 5821 5821 5822 5823 5823 5824 5823 5824 5824 5824 5823 5823 5823 5822 5820 5819 5817 5815 5814 5813 5813 5812 5812 5811 5811 5810 5807 5806 5806
5808 5809 5809 5810 5811 5812 5813 5814 5814 5815 5816 5816 5816 5816 5817 5818 5818 5819 5820 5820 5820 5820 5820 5820 5819 5818 5818 5817 5816 5814 5812 5809 5808 5807 5808 5807 5806 5806 5805 5803 5801 5801 5800
5804 5805 5806 5806 5807 5808 5809 5809 5811 5811 5812 5813 5813 5813 5813 5813 5813 5815 5815 5816 5816 5816 5815 5815 5814 5814 5813 5813 5811 5810 5808 5806 5805 5804 5803 5802 5800 5800 5800 5797 5797 5796 5793
5799 5801 5802 5802 5801 5802 5804 5806 5806 5807 5808 5809 5809 5810 5810 5809 5809 5810 5810 5810 5810 5810 5810 5810 5809 5809 5808 5808 5807 5805 5803 5802 5800 5799 5798 5797 5796 5794 5794 5791 5791 5788 5787
5793 5795 5796 5796 5797 5798 5798 5801 5802 5803 5804 5805 5806 5806 5805 5804 5804 5804 5805 5805 5804 5804 5804 5804 5804 5803 5803 5802 5801 5800 5798 5796 5795 5793 5793 5791 5790 5788 5786 5785 5782 5780 5778
5786 5788 5789 5790 5791 5792 5794 5794 5797 5797 5798 5800 5800 5799 5800 5799 5799 5799 5799 5799 5798 5798 5798 5798 5798 5798 5797 5796 5794 5794 5792 5790 5789 5787 5786 5785 5784 5781 5779 5778 5775 5772 5771
5778 5780 5781 5783 5785 5786 5788 5790 5790 5792 5794 5795 5794 5794 5794 5795 5794 5794 5794 5793 5792 5792 5792 5791 5791 5791 5790 5789 5788 5786 5785 5783 5782 5780 5780 5777 5777 5774 5772 5770 5767 5765 5764
5771 5772 5774 5776 5778 5780 5781 5783 5784 5786 5787 5788 5788 5788 5789 5789 5789 5788 5788 5787 5786 5786 5785 5785 5785 5784 5783 5782 5781 5780 5778 5776 5774 5773 5772 5771 5769 5767 5764 5762 5759 5757 5755
5764 5765 5767 5770 5772 5774 5774 5776 5778 5779 5780 5782 5781 5782 5782 5783 5783 5782 5782 5782 5780 5780 5779 5779 5778 5777 5777 5776 5774 5772 5770 5769 5767 5766 5764 5762 5760 5759 5756 5753 5751 5749 5747
5758 5759 5760 5762 5764 5766 5768 5768 5771 5772 5773 5775 5775 5776 5776 5776 5776 5775 5775 5775 5774 5773 5773 5772 5771 5771 5770 5769 5767 5765 5763 5762 5760 5758 5757 5754 5751 5749 5747 5745 5741 5740 5737
5750 5752 5752 5755 5757 5759 5761 5762 5764 5765 5767 5768 5768 5768 5768 5769 5768 5768 5768 5768 5767 5766 5766 5766 5765 5764 5763 5761 5759 5757 5756 5754 5752 5750 5748 5745 5743 5739 5736 5734 5732 5729 5727
5743 5745 5747 5748 5751 5752 5753 5755 5757 5758 5760 5761 5762 5762 5762 5762 5761 5761 5761 5761 5760 5759 5759 5759 5758 5757 5755 5753 5751 5750 5747 5745 5744 5741 5739 5736 5733 5729 5726 5723 5720 5717 5715
5734 5736 5738 5739 5741 5744 5745 5748 5748 5751 5752 5754 5754 5755 5755 5754 5754 5753 5753 5753 5752 5752 5752 5751 5750 5749 5747 5745 5742 5740 5738 5738 5734 5731 5728 5724 5721 5718 5714 5711 5707 5704 5701
5722 5727 5729 5731 5733 5736 5737 5739 5741 5744 5744 5746 5748 5747 5747 5747 5746 5745 5746 5745 5745 5744 5744 5743 5742 5740 5739 5736 5733 5731 5728 5726 5723 5720 5716 5711 5708 5704 5700 5696 5692 5687 5684
5710 5714 5718 5722 5723 5725 5728 5732 5734 5735 5736 5739 5740 5741 5740 5739 5738 5738 5738 5737 5737 5736 5735 5734 5733 5731 5728 5726 5724 5720 5717 5714 5712 5710 5705 5701 5696 5691 5686 5682 5677 5671 5666
5697 5701 5706 5710 5714 5716 5721 5724 5724 5726 5728 5731 5732 5733 5733 5731 5731 5731 5730 5729 5729 5728 5726 5725 5723 5721 5718 5715 5712 5710 5707 5703 5699 5695 5694 5689 5684 5679 5675 5671 5667 5662 5656
5686 5690 5695 5700 5704 5707 5711 5714 5716 5719 5722 5722 5723 5725 5725 5724 5724 5723 5722 5721 5720 5719 5717 5716 5714 5711 5708 5705 5702 5699 5695 5692 5687 5683 5680 5676 5672 5667 5661 5655 5650 5644 5639